Location: Newark
(48.4472°N, 1.4892°E)
Time: 15:24:44
(UTC+00:00)

Transit 4A - Visible Passes

Search period start: 22 November 2019 00:00
Search period end: 02 December 2019 00:00
Orbit: 869 x 976 km, 66.8° (Epoch: 21 November)

Date Brightness Start Highest point End Pass type
(mag) Time Alt. Az. Time Alt. Az. Time Alt. Az.
22 Nov 10.6 02:19:27 10° NE 02:19:27 10° NE 02:19:32 10° NE visible
22 Nov 9.4 04:02:59 22° N 04:05:08 27° NE 04:10:05 10° E visible
22 Nov 7.8 05:46:31 11° NW 05:52:10 81° WSW 05:57:59 10° SSE visible
23 Nov 10.5 02:28:55 12° NE 02:28:55 12° NE 02:29:49 10° NE visible
23 Nov 9.1 04:12:28 26° N 04:14:46 35° NE 04:20:04 10° ESE visible
23 Nov 7.9 05:56:00 12° NW 06:01:27 58° WSW 06:07:06 10° SSE visible
24 Nov 10.4 02:38:29 14° NE 02:38:29 14° NE 02:40:07 10° ENE visible
24 Nov 8.7 04:22:01 31° N 04:24:20 45° NE 04:29:54 10° ESE visible
24 Nov 8.3 06:05:34 12° NW 06:10:38 40° WSW 06:16:00 10° S visible
25 Nov 10.2 02:48:06 17° NE 02:48:06 17° NE 02:50:25 10° ENE visible
25 Nov 8.2 04:31:39 38° NNW 04:33:48 61° NE 04:39:33 10° SE visible
25 Nov 8.7 06:15:12 11° NW 06:19:46 28° WSW 06:24:35 10° SSW visible
26 Nov 10.0 02:57:48 21° ENE 02:57:48 21° ENE 03:00:36 10° E visible
26 Nov 7.7 04:41:21 46° NNW 04:43:12 83° NE 04:49:01 10° SE visible
26 Nov 9.2 06:24:55 10° WNW 06:28:48 19° WSW 06:32:46 10° SSW visible
27 Nov 9.7 03:07:35 24° ENE 03:07:35 24° ENE 03:10:42 10° E visible
27 Nov 7.6 04:51:09 52° WNW 04:52:31 72° WSW 04:58:17 10° SSE visible
27 Nov 9.5 06:35:24 10° WNW 06:37:47 13° W 06:40:09 10° SW visible
28 Nov 9.5 03:17:27 28° E 03:17:27 28° E 03:20:37 10° ESE visible
28 Nov 7.9 05:01:01 48° W 05:01:46 50° WSW 05:07:20 10° S visible
28 Nov 9.8 18:21:46 10° SSE 18:22:42 13° SSE 18:22:42 13° SSE visible
28 Nov 10.3 20:05:46 10° SW 20:06:17 13° SW 20:06:17 13° SW visible
29 Nov 9.4 03:27:25 29° ESE 03:27:25 29° ESE 03:30:23 10° ESE visible
29 Nov 8.4 05:10:59 35° WSW 05:10:59 35° WSW 05:16:08 10° S visible
29 Nov 9.3 18:30:03 10° S 18:32:48 22° SSE 18:32:48 22° SSE visible
29 Nov 10.2 20:15:17 10° SW 20:16:23 16° SW 20:16:23 16° SW visible
30 Nov 9.4 03:37:26 27° SE 03:37:26 27° SE 03:39:59 10° SE visible
30 Nov 9.0 05:21:00 23° WSW 05:21:00 23° WSW 05:24:35 10° SSW visible
30 Nov 8.7 18:38:42 10° S 18:42:50 35° SSE 18:42:50 35° SSE visible
30 Nov 10.2 20:24:58 10° WSW 20:26:24 17° WSW 20:26:24 17° WSW visible
01 Dec 9.6 03:47:31 22° SSE 03:47:31 22° SSE 03:49:23 10° SSE visible
01 Dec 9.5 05:31:06 14° SW 05:31:06 14° SW 05:32:33 10° SW visible
01 Dec 9.7 17:07:11 10° ESE 17:08:34 11° E 17:09:13 11° E visible
01 Dec 8.1 18:47:38 10° SSW 18:52:47 54° SSE 18:52:47 54° SSE visible
01 Dec 10.2 20:34:51 10° WSW 20:36:21 17° W 20:36:21 17° W visible
